Skip Page Navigation
NASA JPL Caltech
NASA Logo - Jet Propulsion Laboratory + View the NASA Portal
+ Near-Earth Object (NEO) Program
Search JPL
JPL Home Earth Solar System Stars & Galaxies Technology
JPL Solar System Dynamics
BODIES ORBITS EPHEMERIDES TOOLS PHYSICAL DATA DISCOVERY FAQ SITE MAP
JPL Small-Body Database Browser
Search: [ help ]  
5741 Akanemaruta (1989 XC)
Classification: Main-belt Asteroid          SPK-ID: 2005741
Ephemeris | Orbit Diagram | Orbital Elements | Physical Parameters | Discovery Circumstances ]

[ show orbit diagram ]
Orbital Elements at Epoch 2456400.5 (2013-Apr-18.0) TDB
Reference: MPO250264 (heliocentric ecliptic J2000)
 Element Value Uncertainty (1-sigma)   Units 
e 0.1033094 n/a  
a 2.8633486 n/a AU
q 2.5675378 n/a AU
i 3.23322 n/a deg
node 83.43021 n/a deg
peri 301.35286 n/a deg
M 340.86233 n/a deg
tp 2456494.5797833
(2013-Jul-21.07978330)
n/a JED
period 1769.7411429
4.85
n/a
n/a
d
yr
n 0.20341958 n/a deg/d
Q 3.1591594 n/a AU
  Orbit Determination Parameters
   # obs. used (total)      1010  
   first obs. used      1954-??-??  
   last obs. used      2012-10-16  
   # oppositions      20  
   planetary ephem.      DE403  
   condition code      0  
   fit RMS      0.56  
   data source      MPC:mpn  
   producer      MPCLINUX  

Additional Information
 T_jup = 3.291 

Ephemeris | Orbit Diagram | Orbital Elements | Physical Parameters | Discovery Circumstances ]

Physical Parameter Table
Parameter Symbol Value Units Sigma Reference Notes
absolute magnitude H 12.1 mag n/a PDS3 (MPC 28114)  

5741 Akanemaruta           Discovered 1989 Dec. 2 at Oohira.
Akane Maruta (1988-1998) was a girl who loved stars. She was killed in an accident caused by a drunk driver. The Akane Astronomical Observatory was built in her memory. A public concert is held there every May to honor her around the time of her birthday. The name was suggested by N. Matsumoto.
NOTE: some special characters may not display properly (any characters within {} are an attempt to place the proper accent above a character)
Reference: 20091004/MPCPages.arcLast Updated: 2009-10-06

Alternate Designations
 1989 XC = 1986 CX1 
Ephemeris | Orbit Diagram | Orbital Elements | Physical Parameters | Discovery Circumstances ]
ABOUT SSD CREDITS/AWARDS PRIVACY/COPYRIGHT GLOSSARY LINKS
FirstGov 2013-May-23 01:37 UT
(server date/time)  
NASA Home Page
Site Manager:   Donald K. Yeomans
Webmaster  Alan B. Chamberlin